TimeEDT,TemperatureF,Dew PointF,Humidity,Sea Level PressureIn,VisibilityMPH,Wind Direction,Wind SpeedMPH,Gust SpeedMPH,PrecipitationIn,Events,Conditions,WindDirDegrees,DateUTC
12:15 AM,75.2,73.4,94,30.29,2.5,Calm,Calm,-,N/A,,Overcast,0,2013-07-14 04:15:00
12:35 AM,75.2,73.4,94,30.29,3.0,Calm,Calm,-,N/A,,Overcast,0,2013-07-14 04:35:00
12:55 AM,75.2,73.4,94,30.29,4.0,Calm,Calm,-,N/A,,Overcast,0,2013-07-14 04:55:00
1:15 AM,75.2,73.4,94,30.29,2.5,Calm,Calm,-,N/A,,Overcast,0,2013-07-14 05:15:00
1:35 AM,75.2,73.4,94,30.29,3.0,Calm,Calm,-,N/A,,Overcast,0,2013-07-14 05:35:00
1:55 AM,75.2,73.4,94,30.29,3.0,Calm,Calm,-,N/A,,Overcast,0,2013-07-14 05:55:00
2:15 AM,77.0,73.4,89,30.29,3.0,Calm,Calm,-,N/A,,Overcast,0,2013-07-14 06:15:00
2:35 AM,77.0,73.4,89,30.30,4.0,Calm,Calm,-,N/A,,Overcast,0,2013-07-14 06:35:00
2:55 AM,77.0,73.4,89,30.30,4.0,Calm,Calm,-,N/A,,Overcast,0,2013-07-14 06:55:00
3:15 AM,77.0,73.4,89,30.30,4.0,Calm,Calm,-,N/A,,Overcast,0,2013-07-14 07:15:00
3:35 AM,77.0,73.4,89,30.31,4.0,Calm,Calm,-,N/A,,Overcast,0,2013-07-14 07:35:00
3:55 AM,77.0,73.4,89,30.30,4.0,Calm,Calm,-,N/A,,Overcast,0,2013-07-14 07:55:00
4:15 AM,77.0,73.4,89,30.31,4.0,Calm,Calm,-,N/A,,Overcast,0,2013-07-14 08:15:00
4:35 AM,75.2,73.4,94,30.31,2.5,Calm,Calm,-,N/A,,Overcast,0,2013-07-14 08:35:00
4:55 AM,75.2,73.4,94,30.31,3.0,Calm,Calm,-,N/A,,Overcast,0,2013-07-14 08:55:00
5:15 AM,75.2,73.4,94,30.31,3.0,Calm,Calm,-,N/A,,Overcast,0,2013-07-14 09:15:00
5:35 AM,75.2,73.4,94,30.31,2.0,Calm,Calm,-,N/A,,Overcast,0,2013-07-14 09:35:00
5:55 AM,75.2,73.4,94,30.32,1.5,Calm,Calm,-,N/A,,Overcast,0,2013-07-14 09:55:00
6:15 AM,75.2,73.4,94,30.32,2.0,Calm,Calm,-,N/A,,Overcast,0,2013-07-14 10:15:00
6:35 AM,77.0,73.4,89,30.33,2.0,Calm,Calm,-,N/A,,Overcast,0,2013-07-14 10:35:00
6:45 AM,73.4,73.4,100,30.33,6.0,Calm,Calm,-,N/A,,Overcast,0,2013-07-14 10:45:00
7:45 AM,77.0,75.2,94,30.36,7.0,WSW,4.6,-,N/A,,Overcast,240,2013-07-14 11:45:00
8:45 AM,80.6,75.2,84,30.34,7.0,SW,4.6,-,N/A,,Scattered Clouds,220,2013-07-14 12:45:00
9:45 AM,82.4,73.4,74,30.34,10.0,West,9.2,-,N/A,,Mostly Cloudy,280,2013-07-14 13:45:00
10:45 AM,84.2,73.4,70,30.33,10.0,NW,6.9,-,N/A,,Mostly Cloudy,310,2013-07-14 14:45:00
11:45 AM,86.0,71.6,62,30.23,10.0,West,9.2,-,N/A,,Mostly Cloudy,280,2013-07-14 15:45:00
12:45 PM,87.8,71.6,58,30.31,10.0,West,5.8,-,N/A,,Mostly Cloudy,280,2013-07-14 16:45:00
1:45 PM,87.8,69.8,55,30.30,10.0,West,8.1,16.1,N/A,,Mostly Cloudy,280,2013-07-14 17:45:00
2:45 PM,89.6,69.8,52,30.29,10.0,West,9.2,-,N/A,,Scattered Clouds,280,2013-07-14 18:45:00
3:45 PM,89.6,69.8,52,30.27,10.0,SW,10.4,16.1,N/A,,Scattered Clouds,220,2013-07-14 19:45:00
4:45 PM,89.6,69.8,52,30.26,10.0,West,11.5,15.0,N/A,,Scattered Clouds,260,2013-07-14 20:45:00
5:45 PM,89.6,69.8,52,30.25,20.0,West,10.4,17.3,N/A,,Partly Cloudy,260,2013-07-14 21:45:00
6:45 PM,87.8,69.8,55,30.25,10.0,WSW,11.5,-,N/A,,Partly Cloudy,240,2013-07-14 22:45:00
7:45 PM,86.0,69.8,58,30.25,10.0,WSW,5.8,-,N/A,,Clear,250,2013-07-14 23:45:00
8:45 PM,84.2,69.8,62,30.25,10.0,West,8.1,-,N/A,,Clear,260,2013-07-15 00:45:00
9:45 PM,82.4,69.8,66,30.26,10.0,West,6.9,-,N/A,,Clear,270,2013-07-15 01:45:00
10:55 PM,78.8,69.8,74,30.26,10.0,Calm,Calm,-,N/A,,Clear,0,2013-07-15 02:55:00
11:15 PM,77.0,69.8,78,30.26,10.0,Calm,Calm,-,N/A,,Clear,0,2013-07-15 03:15:00
11:35 PM,77.0,71.6,83,30.26,10.0,Calm,Calm,-,N/A,,Clear,0,2013-07-15 03:35:00
11:55 PM,75.2,69.8,83,30.26,10.0,Calm,Calm,-,N/A,,Clear,0,2013-07-15 03:55:00